[[{"header":{"parameterUnit":"m.s-1","parameterCategory":2,"la1":30.2991,"la2":30.254,"lo1":-89.0895,"lo2":-89.0444,"dy":0.0017,"dx":0.0017,"nx":28,"ny":28,"refTime":"2024-08-29T21:00:00:Z","depth":"0","parameterNumber":2,"parameterNumberName":"U-component_of_CURRENTS"},"data":[0,0,0,0,0,0,0,0,0,0,0,0,0,0,0,0,0,0,0,0,0,0,0,0,0,0,0,0,0,0,0,0,0,0,0,0,0,0,0,0,0,0,0,0,0,0,0,0,0,0,0,0,0,0,0,0,0,0,-0.2262,-0.2263,0,-0.229,-0.229,-0.229,-0.2254,-0.2253,-0.2252,-0.2251,-0.2205,-0.2204,-0.2204,0,0,0,0,0,0,0,0,0,0,0,0,0,-0.2186,-0.2188,-0.2262,-0.2263,-0.2263,-0.229,-0.229,-0.229,-0.2254,-0.2253,-0.2252,-0.225,-0.2205,-0.2204,-0.2204,0,0,0,0,0,0,0,0,0,0,0,0,0,-0.2215,-0.2188,-0.2262,-0.225,-0.225,-0.229,-0.229,-0.229,-0.2255,-0.2253,-0.2251,-0.225,-0.2205,-0.2204,-0.2204,-0.2235,0,0,-0.2203,-0.2203,0,0,0,0,0,0,0,0,-0.2213,-0.2217,-0.2251,-0.2251,-0.2251,-0.2269,-0.2247,-0.2269,-0.2255,-0.225,-0.2251,-0.2249,-0.2222,-0.222,-0.2227,-0.2233,-0.2231,-0.2203,-0.2203,-0.2203,-0.2203,0,0,0,0,0,0,0,-0.2211,-0.2216,-0.2271,-0.2252,-0.2252,-0.2247,-0.2249,-0.2251,-0.2242,-0.2251,-0.2249,-0.2256,-0.2221,-0.2227,-0.2225,-0.223,-0.2203,-0.2203,-0.2203,-0.2202,-0.2261,-0.2263,0,0,0,0,0,0,-0.2214,-0.2215,-0.227,-0.2272,-0.223,-0.225,-0.2252,-0.2263,-0.2243,-0.224,-0.2257,-0.2254,-0.2229,-0.2226,-0.2223,-0.2248,-0.2203,-0.2202,-0.2202,-0.2259,-0.2261,-0.2263,0,0,0,0,0,0,-0.2213,-0.2219,-0.2269,-0.2245,-0.2251,-0.2253,-0.2266,-0.2264,-0.2264,-0.225,-0.2244,-0.2257,-0.2227,-0.2224,-0.2228,-0.2246,-0.2202,-0.2202,-0.2257,-0.226,-0.2262,-0.2304,0,0,0,0,0,0,-0.2211,-0.2219,-0.2225,-0.2246,-0.2253,-0.2292,-0.2267,-0.2266,-0.2273,-0.2268,-0.2249,-0.2243,-0.2226,-0.2229,-0.2228,-0.2245,-0.2202,-0.2255,-0.2258,-0.2261,-0.2301,-0.2308,-0.2314,0,0,0,0,0,-0.2208,-0.2222,-0.2225,-0.2232,-0.2263,-0.2293,-0.2297,-0.229,-0.2274,-0.2281,-0.227,-0.2243,-0.2249,-0.223,-0.2229,-0.2246,-0.2253,-0.2257,-0.2261,-0.2298,-0.2307,-0.2314,0,0,0,0,0,0,-0.2189,-0.2221,-0.2224,-0.2247,-0.2269,-0.2288,-0.2295,-0.2294,-0.2294,-0.2285,-0.2263,-0.2258,-0.227,-0.226,-0.224,-0.2276,-0.2249,-0.2252,-0.2277,-0.2285,-0.2292,-0.2286,-0.2202,0,0,0,0,0,-0.2192,-0.2211,-0.2241,-0.2258,-0.2271,-0.2284,-0.2294,-0.2296,-0.2302,-0.2299,-0.2288,-0.2283,-0.229,-0.2286,-0.2289,-0.2307,-0.2289,-0.2321,-0.2328,-0.2333,-0.233,-0.2329,-0.2335,-0.2276,-0.2276,-0.2276,0,0,-0.2188,-0.221,-0.2219,-0.2256,-0.227,-0.2299,-0.2285,-0.2306,-0.2326,-0.2296,-0.2309,-0.2304,-0.2301,-0.2321,-0.2326,-0.231,-0.2342,-0.2338,-0.2343,-0.2336,-0.2334,-0.2339,-0.2344,-0.2279,-0.2278,-0.2278,0,0,-0.2197,-0.2213,-0.2233,-0.2259,-0.229,-0.2306,-0.2314,-0.2338,-0.234,-0.2363,-0.2348,-0.2354,-0.2362,-0.2364,-0.2366,-0.2416,-0.2379,-0.2421,-0.2445,-0.2445,-0.2449,-0.2453,-0.2436,-0.2438,-0.2423,-0.2423,-0.2423,0,-0.2191,-0.2221,-0.2242,-0.2273,-0.2295,-0.2311,-0.234,-0.2359,-0.2379,-0.2386,-0.237,-0.2391,-0.2383,-0.2411,-0.2427,-0.2428,-0.2416,-0.241,-0.2451,-0.2454,-0.2457,-0.244,-0.2441,-0.2425,-0.2425,-0.2425,-0.2424,0,-0.2215,-0.2243,-0.2259,-0.2304,-0.2333,-0.236,-0.2396,-0.2415,-0.2419,-0.2432,-0.2454,-0.2451,-0.2457,-0.2467,-0.2458,-0.2485,-0.2466,-0.2459,-0.2424,-0.2465,-0.2445,-0.2445,-0.2429,-0.2428,-0.2427,-0.2426,0,0,-0.2186,-0.2261,-0.2263,-0.2291,-0.235,-0.2374,-0.2419,-0.2459,-0.2477,-0.2494,-0.2512,-0.2532,-0.2519,-0.2522,-0.2517,-0.252,-0.2527,-0.2498,-0.2497,-0.2469,-0.2515,-0.2462,-0.2457,-0.2525,-0.2526,-0.2526,-0.2492,0,-0.2193,-0.2251,-0.2289,-0.2342,-0.2375,-0.2415,-0.2456,-0.2495,-0.2515,-0.2537,-0.2543,-0.2555,-0.2546,-0.2543,-0.2549,-0.2534,-0.2531,-0.2536,-0.249,-0.2488,-0.2426,-0.2457,-0.2377,-0.2337,-0.2492,-0.2492,-0.2492,0,-0.2197,-0.2237,-0.229,-0.2364,-0.238,-0.2413,-0.247,-0.2507,-0.2552,-0.2566,-0.2583,-0.2584,-0.2598,-0.2577,-0.257,-0.2573,-0.2546,-0.2531,-0.2529,-0.2463,-0.2436,-0.2323,-0.2331,-0.2314,-0.2492,-0.2492,-0.2492,0,-0.2156,-0.2235,-0.2272,-0.2299,-0.2385,-0.2409,-0.2447,-0.2504,-0.2534,-0.2571,-0.2589,-0.2607,-0.2607,-0.2592,-0.2565,-0.2566,-0.2544,-0.254,-0.2467,-0.2462,-0.2375,-0.2362,-0.2348,-0.2526,-0.2526,-0.2526,-0.2526,0,-0.2146,-0.2172,-0.2253,-0.2272,-0.231,-0.2381,-0.2417,-0.2459,-0.2518,-0.2543,-0.2587,-0.2601,-0.2611,-0.2603,-0.2572,-0.2517,-0.2547,-0.2469,-0.2452,-0.2389,-0.2378,-0.2343,-0.2363,-0.2525,-0.2525,-0.2525,-0.2525,0,-0.2088,-0.2147,-0.2188,-0.2269,-0.2291,-0.231,-0.239,-0.2414,-0.2484,-0.2517,-0.2528,-0.2594,-0.2582,-0.258,-0.2551,-0.2517,-0.243,-0.2442,-0.2359,-0.2333,-0.2246,-0.2272,-0.2217,-0.2153,-0.2357,-0.2355,-0.2354,0,-0.2061,-0.2077,-0.2154,-0.2168,-0.2198,-0.2244,-0.2272,-0.2368,-0.2399,-0.2499,-0.2503,-0.2535,-0.2529,-0.2487,-0.2435,-0.2372,-0.2363,-0.2264,-0.2254,-0.2229,-0.2246,-0.2246,-0.2196,-0.2156,-0.2153,-0.2151,-0.2149,0,-0.199,-0.2015,-0.2043,-0.2079,-0.2108,-0.2147,-0.2198,-0.223,-0.2334,-0.2379,-0.2424,-0.2434,-0.2423,-0.2343,-0.2285,-0.2231,-0.2212,-0.2215,-0.2213,-0.2108,-0.2083,-0.2015,-0.2188,-0.2129,-0.2131,-0.2133,-0.2134,-0.2134,-0.1912,-0.1912,-0.1947,-0.1967,-0.2002,-0.2027,-0.2016,-0.2092,-0.2133,-0.2174,-0.227,-0.2264,-0.2264,-0.2175,-0.2127,-0.2029,-0.2059,-0.1973,-0.2011,-0.2016,-0.1942,-0.2064,-0.1975,-0.1976,-0.1977,-0.1977,-0.1978,0,-0.1811,-0.1822,-0.1834,-0.1858,-0.1841,-0.1902,-0.194,-0.1912,-0.1912,-0.2001,-0.2021,-0.2064,-0.2,-0.2005,-0.1942,-0.1858,-0.1801,-0.1813,-0.1803,-0.1763,-0.1883,-0.1862,-0.1713,-0.1714,-0.1714,-0.1714,-0.1714,-0.1714,-0.1758,-0.1732,-0.1741,-0.1682,-0.1689,-0.1627,-0.1617,-0.1604,-0.1638,-0.1656,-0.1716,-0.1816,-0.1851,-0.1991,-0.1895,-0.1801,-0.1744,-0.1686,-0.1697,-0.1809,-0.1827,-0.1845,-0.1828,-0.1675,-0.1675,-0.15,-0.1499,-0.1498]},{"header":{"parameterUnit":"m.s-1","parameterCategory":2,"la1":30.2991,"la2":30.254,"lo1":-89.0895,"lo2":-89.0444,"dy":0.0017,"dx":0.0017,"nx":28,"ny":28,"refTime":"2024-08-29T21:00:00:Z","depth":"0","parameterNumber":3,"parameterNumberName":"V-component_of_CURRENTS"},"data":[0,0,0,0,0,0,0,0,0,0,0,0,0,0,0,0,0,0,0,0,0,0,0,0,0,0,0,0,0,0,0,0,0,0,0,0,0,0,0,0,0,0,0,0,0,0,0,0,0,0,0,0,0,0,0,0,0,0,-0.017,-0.017,0,-0.0097,-0.0096,-0.0095,-0.0038,-0.0038,-0.0037,-0.0037,0.0078,0.008,0.0083,0,0,0,0,0,0,0,0,0,0,0,0,0,-0.0219,-0.0219,-0.0171,-0.017,-0.0169,-0.0097,-0.0096,-0.0095,-0.0038,-0.0038,-0.0037,-0.0037,0.0077,0.008,0.0083,0,0,0,0,0,0,0,0,0,0,0,0,0,-0.0176,-0.0218,-0.0171,-0.0133,-0.0129,-0.0097,-0.0096,-0.0094,-0.0038,-0.0038,-0.0037,-0.0036,0.0076,0.0079,0.0083,0.0095,0,0,0.0096,0.0097,0,0,0,0,0,0,0,0,-0.0178,-0.0174,-0.0139,-0.0135,-0.0131,-0.0077,-0.0071,-0.0029,-0.0039,-0.0071,-0.0037,-0.0036,0.0028,0.0036,0.005,0.01,0.0105,0.0096,0.0098,0.01,0.0101,0,0,0,0,0,0,0,-0.0182,-0.0177,-0.014,-0.0139,-0.0133,-0.0105,-0.0098,-0.0063,-0.0024,-0.0069,-0.0065,-0.0058,0.0031,0.0046,0.0053,0.0107,0.0096,0.0099,0.0102,0.0103,0.0185,0.0185,0,0,0,0,0,0,-0.0196,-0.018,-0.0142,-0.0138,-0.0155,-0.0105,-0.0097,-0.0094,-0.0025,-0.0015,-0.0059,-0.0056,0.0039,0.0048,0.0057,0.0079,0.01,0.0104,0.0106,0.0185,0.0185,0.0185,0,0,0,0,0,0,-0.0197,-0.0194,-0.0145,-0.0158,-0.015,-0.0105,-0.0101,-0.0093,-0.0077,-0.0019,-0.0007,-0.0052,0.004,0.0052,0.0091,0.0083,0.0106,0.0109,0.0185,0.0185,0.0185,0.0119,0,0,0,0,0,0,-0.0199,-0.0195,-0.0199,-0.0159,-0.015,-0.0134,-0.0102,-0.0092,-0.0075,-0.007,-0.0009,0.0002,0.0041,0.0084,0.0095,0.0089,0.0112,0.0186,0.0185,0.0185,0.0121,0.0116,0.0112,0,0,0,0,0,-0.0201,-0.0213,-0.02,-0.0195,-0.0157,-0.0134,-0.0127,-0.0092,-0.0076,-0.0074,-0.0028,0.0,0.0089,0.0087,0.01,0.0095,0.0186,0.0185,0.0185,0.0124,0.0117,0.0112,0,0,0,0,0,0,-0.0236,-0.0207,-0.0192,-0.0194,-0.0169,-0.0125,-0.0123,-0.0098,-0.0061,-0.0056,0.0001,0.0016,0.0045,0.0079,0.0076,0.0117,0.0141,0.0142,0.009,0.0085,0.008,0.0072,0.0116,0,0,0,0,0,-0.0247,-0.0248,-0.0213,-0.0215,-0.0206,-0.0166,-0.0153,-0.0129,-0.0092,-0.0075,-0.0032,0.0013,0.0051,0.0075,0.0111,0.0136,0.0178,0.0141,0.0136,0.0132,0.0133,0.0191,0.0192,0.0183,0.0183,0.0183,0,0,-0.0261,-0.0246,-0.0246,-0.0223,-0.0201,-0.0196,-0.0156,-0.0143,-0.0133,-0.0069,-0.0044,-0.0003,0.0053,0.0081,0.0097,0.011,0.0155,0.0131,0.0127,0.0131,0.019,0.0191,0.0192,0.0183,0.0183,0.0183,0,0,-0.0295,-0.0278,-0.0291,-0.0275,-0.025,-0.0222,-0.0222,-0.0182,-0.0159,-0.0131,-0.0083,-0.0043,0.0011,0.0053,0.0081,0.0074,0.0125,0.008,0.0055,0.011,0.0112,0.0113,0.0159,0.0166,0.0081,0.0081,0.0081,0,-0.0314,-0.0325,-0.0291,-0.0299,-0.0291,-0.0239,-0.0249,-0.0219,-0.017,-0.015,-0.0133,-0.0043,-0.0,0.0046,0.0042,0.0064,0.0101,0.007,0.0104,0.0107,0.011,0.0157,0.0165,0.0078,0.0078,0.0078,0.0079,0,-0.0355,-0.0363,-0.0371,-0.0362,-0.0347,-0.0348,-0.0304,-0.0283,-0.0248,-0.0211,-0.0161,-0.0097,-0.0041,-0.0025,0.0007,0.0046,0.0067,0.0088,0.0116,0.0107,0.0157,0.0166,0.0073,0.0074,0.0075,0.0076,0,0,-0.04,-0.0401,-0.0406,-0.0415,-0.0382,-0.0376,-0.0356,-0.032,-0.0302,-0.0248,-0.0216,-0.0151,-0.0108,-0.0073,-0.0024,0.0024,0.0071,0.0058,0.0063,0.01,0.0189,0.0228,0.0243,0.0098,0.01,0.0101,0.0213,0,-0.0444,-0.0482,-0.0461,-0.0488,-0.05,-0.0448,-0.0431,-0.0388,-0.0338,-0.0293,-0.0214,-0.0167,-0.0128,-0.0099,-0.0046,0.0047,0.0094,0.0039,0.0197,0.0202,0.0235,0.0254,0.0282,0.0387,0.0223,0.0224,0.0225,0,-0.0492,-0.051,-0.0548,-0.055,-0.0548,-0.0548,-0.0508,-0.0486,-0.0403,-0.0361,-0.0293,-0.0224,-0.014,-0.0109,0.0043,0.0006,0.0087,0.0157,0.0164,0.0232,0.0259,0.0373,0.0411,0.0547,0.0241,0.0239,0.0238,0,-0.0546,-0.0573,-0.0606,-0.0609,-0.0594,-0.0594,-0.0577,-0.0509,-0.0487,-0.0401,-0.0368,-0.0256,-0.0191,-0.0076,0.0071,0.0059,0.0242,0.0247,0.0358,0.0361,0.0434,0.0442,0.0621,0.0349,0.0349,0.0348,0.0348,0,-0.0602,-0.0631,-0.0638,-0.0659,-0.0689,-0.065,-0.0653,-0.0617,-0.0551,-0.0522,-0.0411,-0.0353,-0.0179,-0.005,0.0069,0.0252,0.0246,0.0364,0.04,0.0411,0.0414,0.0575,0.0627,0.0352,0.0352,0.0351,0.035,0,-0.0656,-0.0661,-0.0705,-0.0713,-0.0719,-0.0738,-0.0723,-0.0715,-0.0644,-0.06,-0.0574,-0.0414,-0.0236,-0.0058,0.0151,0.0256,0.0509,0.0479,0.0477,0.0511,0.0728,0.0773,0.0989,0.1057,0.0619,0.062,0.0622,0,-0.0687,-0.0714,-0.0757,-0.0786,-0.0796,-0.0814,-0.0821,-0.0772,-0.0755,-0.0634,-0.0614,-0.0429,-0.0284,0.0043,0.0272,0.0506,0.06,0.0656,0.064,0.076,0.0837,0.0864,0.0907,0.0708,0.071,0.0712,0.0713,0,-0.074,-0.0753,-0.0791,-0.0856,-0.0887,-0.0916,-0.092,-0.0922,-0.0843,-0.078,-0.0653,-0.0523,-0.0188,0.0123,0.0433,0.0561,0.0761,0.0697,0.0835,0.0939,0.0969,0.1045,0.0605,0.0728,0.0727,0.0726,0.0725,0.0724,-0.0773,-0.0817,-0.0865,-0.0923,-0.0965,-0.1001,-0.1012,-0.0986,-0.0947,-0.0829,-0.0694,-0.0469,-0.0015,0.0443,0.0611,0.0953,0.0902,0.1037,0.1087,0.1107,0.1168,0.0754,0.0906,0.0905,0.0905,0.0905,0.0904,0,-0.0813,-0.0861,-0.0926,-0.0994,-0.1046,-0.1048,-0.1061,-0.1038,-0.0979,-0.0838,-0.0679,-0.0194,0.0257,0.0662,0.1164,0.134,0.1363,0.1412,0.1465,0.1492,0.1151,0.1149,0.1344,0.1344,0.1344,0.1344,0.1344,0.1344,-0.0835,-0.0907,-0.0945,-0.1042,-0.1085,-0.112,-0.1121,-0.106,-0.0953,-0.0695,-0.0431,-0.0209,0.0366,0.1227,0.1693,0.1717,0.1855,0.1835,0.1908,0.1678,0.1646,0.1616,0.1629,0.1922,0.1922,0.2228,0.2232,0.2234]}],[{"header":{"parameterUnit":"m.s-1","parameterCategory":2,"la1":30.2991,"la2":30.254,"lo1":-89.0895,"lo2":-89.0444,"dy":0.0017,"dx":0.0017,"nx":28,"ny":28,"refTime":"2024-08-29T21:00:00:Z","depth":"2","parameterNumber":2,"parameterNumberName":"U-component_of_CURRENTS"},"data":[0,0,0,0,0,0,0,0,0,0,0,0,0,0,0,0,0,0,0,0,0,0,0,0,0,0,0,0,0,0,0,0,0,0,0,0,0,0,0,0,0,0,0,0,0,0,0,0,0,0,0,0,0,0,0,0,0,0,-0.2019,-0.2019,0,-0.2047,-0.2047,-0.2047,-0.202,-0.2019,-0.2018,-0.2017,-0.1982,-0.1981,-0.1981,0,0,0,0,0,0,0,0,0,0,0,0,0,-0.1949,-0.195,-0.2019,-0.2019,-0.202,-0.2047,-0.2047,-0.2047,-0.202,-0.2019,-0.2018,-0.2017,-0.1982,-0.1982,-0.1981,0,0,0,0,0,0,0,0,0,0,0,0,0,-0.1976,-0.1951,-0.2019,-0.2011,-0.2011,-0.2047,-0.2047,-0.2047,-0.202,-0.2019,-0.2018,-0.2017,-0.1982,-0.1982,-0.1981,-0.2006,0,0,-0.1981,-0.1981,0,0,0,0,0,0,0,0,-0.1975,-0.1979,-0.2012,-0.2012,-0.2012,-0.2031,-0.2009,-0.2031,-0.2021,-0.2015,-0.2017,-0.2016,-0.1995,-0.1993,-0.1999,-0.2004,-0.2003,-0.1981,-0.1981,-0.198,-0.198,0,0,0,0,0,0,0,-0.1973,-0.1977,-0.2028,-0.2013,-0.2013,-0.2009,-0.2011,-0.2014,-0.2009,-0.2015,-0.2014,-0.2021,-0.1994,-0.1999,-0.1998,-0.2002,-0.1981,-0.198,-0.198,-0.198,-0.2036,-0.2037,0,0,0,0,0,0,-0.1975,-0.1976,-0.2027,-0.2029,-0.1992,-0.2012,-0.2014,-0.2024,-0.201,-0.2008,-0.2022,-0.2019,-0.2,-0.1998,-0.1996,-0.2025,-0.198,-0.198,-0.198,-0.2034,-0.2036,-0.2038,0,0,0,0,0,0,-0.1974,-0.198,-0.2026,-0.2004,-0.201,-0.2015,-0.2026,-0.2025,-0.2029,-0.2016,-0.2012,-0.2026,-0.1999,-0.1997,-0.2004,-0.2023,-0.198,-0.198,-0.2032,-0.2035,-0.2037,-0.2082,0,0,0,0,0,0,-0.1972,-0.1979,-0.1986,-0.2005,-0.2011,-0.2049,-0.2027,-0.2027,-0.2037,-0.2034,-0.2019,-0.2014,-0.1998,-0.2005,-0.2004,-0.2022,-0.198,-0.203,-0.2033,-0.2036,-0.2079,-0.2086,-0.2092,0,0,0,0,0,-0.1969,-0.1983,-0.1987,-0.1993,-0.2022,-0.205,-0.2053,-0.205,-0.2038,-0.2047,-0.2039,-0.2014,-0.2024,-0.2006,-0.2005,-0.2023,-0.2029,-0.2032,-0.2036,-0.2076,-0.2084,-0.2092,0,0,0,0,0,0,-0.1954,-0.1983,-0.1986,-0.2008,-0.203,-0.2046,-0.2055,-0.2056,-0.2059,-0.2053,-0.2033,-0.2029,-0.2044,-0.2034,-0.2015,-0.2051,-0.2024,-0.2027,-0.2054,-0.2062,-0.2069,-0.2065,-0.198,0,0,0,0,0,-0.1958,-0.1975,-0.2003,-0.202,-0.2032,-0.2046,-0.2056,-0.2059,-0.2066,-0.2066,-0.2058,-0.2054,-0.2061,-0.206,-0.2062,-0.2081,-0.2064,-0.2095,-0.2101,-0.2107,-0.2105,-0.2104,-0.2109,-0.205,-0.205,-0.205,0,0,-0.1956,-0.1975,-0.1984,-0.2018,-0.2032,-0.206,-0.2048,-0.207,-0.2091,-0.2063,-0.208,-0.2076,-0.2073,-0.2093,-0.2099,-0.2083,-0.2117,-0.2111,-0.2116,-0.2111,-0.2108,-0.2114,-0.2118,-0.2052,-0.2052,-0.2051,0,0,-0.1966,-0.1981,-0.2001,-0.2025,-0.2056,-0.207,-0.2079,-0.2103,-0.2108,-0.2133,-0.2119,-0.2126,-0.2136,-0.2137,-0.2138,-0.2186,-0.2153,-0.2191,-0.2218,-0.2218,-0.2222,-0.2225,-0.2212,-0.2214,-0.2194,-0.2194,-0.2194,0,-0.1964,-0.1992,-0.2011,-0.204,-0.2061,-0.2077,-0.2105,-0.2124,-0.2145,-0.2154,-0.2142,-0.2164,-0.2157,-0.2182,-0.2199,-0.2199,-0.2189,-0.2184,-0.2224,-0.2227,-0.223,-0.2216,-0.2217,-0.2196,-0.2196,-0.2196,-0.2195,0,-0.1987,-0.2015,-0.203,-0.2072,-0.21,-0.2126,-0.216,-0.2181,-0.2189,-0.2202,-0.2226,-0.2224,-0.223,-0.224,-0.2232,-0.2258,-0.2241,-0.2231,-0.2198,-0.2238,-0.2221,-0.2222,-0.22,-0.2199,-0.2198,-0.2198,0,0,-0.1964,-0.2033,-0.2036,-0.2063,-0.2118,-0.2141,-0.2186,-0.2224,-0.2244,-0.2263,-0.2283,-0.2303,-0.2293,-0.2296,-0.229,-0.2294,-0.2306,-0.2274,-0.2272,-0.2251,-0.2296,-0.2242,-0.2237,-0.2302,-0.2302,-0.2302,-0.2276,0,-0.1973,-0.2028,-0.2062,-0.2114,-0.2145,-0.2183,-0.2222,-0.226,-0.2283,-0.2306,-0.2313,-0.2327,-0.2319,-0.2319,-0.2325,-0.2312,-0.231,-0.2313,-0.2269,-0.2268,-0.2205,-0.2237,-0.2078,-0.2037,-0.2277,-0.2277,-0.2277,0,-0.1979,-0.2016,-0.2067,-0.2137,-0.2153,-0.2186,-0.2241,-0.2276,-0.232,-0.2336,-0.2355,-0.2358,-0.2374,-0.2354,-0.235,-0.2352,-0.2328,-0.2314,-0.2312,-0.2243,-0.2214,-0.2037,-0.2029,-0.2278,-0.2277,-0.2277,-0.2277,0,-0.1942,-0.2017,-0.2054,-0.2079,-0.216,-0.2185,-0.2221,-0.2277,-0.2305,-0.2345,-0.2364,-0.2384,-0.2387,-0.2374,-0.2349,-0.235,-0.2332,-0.2325,-0.2252,-0.2248,-0.2094,-0.2075,-0.2314,-0.2314,-0.2314,-0.2314,-0.2314,0,-0.1935,-0.1962,-0.2039,-0.2057,-0.2096,-0.2162,-0.2199,-0.224,-0.2296,-0.2319,-0.2365,-0.2379,-0.2392,-0.2386,-0.2358,-0.2305,-0.2336,-0.2257,-0.224,-0.2106,-0.209,-0.2282,-0.2279,-0.2313,-0.2313,-0.2313,-0.2314,0,-0.1882,-0.1938,-0.1979,-0.2057,-0.2079,-0.2099,-0.2176,-0.2198,-0.2268,-0.2299,-0.2311,-0.2375,-0.2366,-0.2365,-0.234,-0.2306,-0.2264,-0.2233,-0.2073,-0.2037,-0.2179,-0.2179,-0.2155,-0.2153,-0.2151,-0.2149,-0.2148,0,-0.1859,-0.1875,-0.195,-0.1964,-0.1994,-0.204,-0.2066,-0.2158,-0.2185,-0.2281,-0.2283,-0.2317,-0.2306,-0.2268,-0.2213,-0.2153,-0.2207,-0.1975,-0.1951,-0.2178,-0.2164,-0.2167,-0.2169,-0.1763,-0.1759,-0.1755,-0.1752,0,-0.1795,-0.182,-0.1847,-0.1881,-0.191,-0.1946,-0.1994,-0.2022,-0.212,-0.2159,-0.2197,-0.2204,-0.2189,-0.2066,-0.201,-0.195,-0.1977,-0.1902,-0.2171,-0.1837,-0.1809,-0.1796,-0.181,-0.1721,-0.1724,-0.1727,-0.1728,-0.173,-0.1725,-0.1725,-0.1758,-0.1777,-0.181,-0.1829,-0.1817,-0.1883,-0.1916,-0.1941,-0.2033,-0.1989,-0.1989,-0.1824,-0.1736,-0.1668,-0.1796,-0.1712,-0.1722,-0.1736,-0.1705,-0.1676,-0.1557,-0.1559,-0.156,-0.1562,-0.1563,0,-0.163,-0.1641,-0.1651,-0.1672,-0.1654,-0.1713,-0.1741,-0.1706,-0.1694,-0.1748,-0.1755,-0.1605,-0.1539,-0.1536,-0.1392,-0.1371,-0.135,-0.1306,-0.128,-0.1312,-0.134,-0.1288,-0.1029,-0.1027,-0.1026,-0.1024,0,0,-0.1581,-0.1555,-0.156,-0.1501,-0.1509,-0.1445,-0.1431,-0.14,-0.1405,-0.1353,-0.1336,-0.1457,-0.1501,-0.1271,-0.1216,-0.11,-0.119,-0.1045,-0.1473,-0.1474,-0.15,-0.1574,-0.153,0,0,0,0,0]},{"header":{"parameterUnit":"m.s-1","parameterCategory":2,"la1":30.2991,"la2":30.254,"lo1":-89.0895,"lo2":-89.0444,"dy":0.0017,"dx":0.0017,"nx":28,"ny":28,"refTime":"2024-08-29T21:00:00:Z","depth":"2","parameterNumber":3,"parameterNumberName":"V-component_of_CURRENTS"},"data":[0,0,0,0,0,0,0,0,0,0,0,0,0,0,0,0,0,0,0,0,0,0,0,0,0,0,0,0,0,0,0,0,0,0,0,0,0,0,0,0,0,0,0,0,0,0,0,0,0,0,0,0,0,0,0,0,0,0,-0.0172,-0.0171,0,-0.0102,-0.0102,-0.0101,-0.0049,-0.0048,-0.0048,-0.0048,0.006,0.0063,0.0065,0,0,0,0,0,0,0,0,0,0,0,0,0,-0.0216,-0.0216,-0.0172,-0.0171,-0.017,-0.0103,-0.0102,-0.01,-0.0049,-0.0048,-0.0048,-0.0048,0.0059,0.0062,0.0065,0,0,0,0,0,0,0,0,0,0,0,0,0,-0.0176,-0.0216,-0.0172,-0.0137,-0.0133,-0.0103,-0.0101,-0.01,-0.0049,-0.0048,-0.0048,-0.0047,0.0058,0.0062,0.0066,0.0079,0,0,0.0078,0.0079,0,0,0,0,0,0,0,0,-0.0178,-0.0174,-0.0143,-0.0139,-0.0135,-0.0085,-0.0078,-0.0039,-0.0049,-0.008,-0.0048,-0.0047,0.0014,0.0022,0.0035,0.0084,0.0088,0.0078,0.008,0.0082,0.0083,0,0,0,0,0,0,0,-0.0181,-0.0177,-0.0143,-0.0142,-0.0138,-0.0111,-0.0104,-0.007,-0.0035,-0.0077,-0.0073,-0.0068,0.0017,0.0031,0.0038,0.009,0.0078,0.0081,0.0084,0.0085,0.0167,0.0167,0,0,0,0,0,0,-0.0195,-0.018,-0.0145,-0.0141,-0.0157,-0.011,-0.0104,-0.0101,-0.0036,-0.0026,-0.0068,-0.0066,0.0024,0.0033,0.0042,0.0065,0.0082,0.0085,0.0088,0.0167,0.0167,0.0167,0,0,0,0,0,0,-0.0196,-0.0193,-0.0148,-0.0159,-0.0152,-0.0111,-0.0107,-0.0099,-0.0085,-0.003,-0.0019,-0.0062,0.0025,0.0036,0.0075,0.0069,0.0087,0.0091,0.0167,0.0167,0.0167,0.0109,0,0,0,0,0,0,-0.0198,-0.0194,-0.0198,-0.0161,-0.0152,-0.0136,-0.0108,-0.0099,-0.0083,-0.0078,-0.0021,-0.001,0.0026,0.0069,0.0078,0.0075,0.0094,0.0167,0.0167,0.0167,0.0111,0.0107,0.0103,0,0,0,0,0,-0.02,-0.0211,-0.0199,-0.0194,-0.0159,-0.0137,-0.013,-0.0097,-0.0083,-0.0081,-0.0038,-0.0012,0.0074,0.0072,0.0083,0.0081,0.0167,0.0167,0.0167,0.0113,0.0107,0.0103,0,0,0,0,0,0,-0.0232,-0.0205,-0.0191,-0.0193,-0.0169,-0.0129,-0.0126,-0.0103,-0.0068,-0.0063,-0.001,0.0004,0.0033,0.0065,0.0061,0.0104,0.0123,0.0125,0.0078,0.0074,0.007,0.006,0.0097,0,0,0,0,0,-0.0242,-0.0244,-0.021,-0.0213,-0.0204,-0.0166,-0.0154,-0.0132,-0.0096,-0.0081,-0.004,0.0003,0.004,0.0063,0.0099,0.0124,0.0161,0.0129,0.0125,0.0122,0.0122,0.0176,0.0177,0.0166,0.0166,0.0166,0,0,-0.0256,-0.0242,-0.0242,-0.022,-0.0199,-0.0193,-0.0157,-0.0144,-0.0134,-0.0074,-0.005,-0.001,0.0043,0.0072,0.0087,0.0099,0.0142,0.0122,0.0118,0.012,0.0176,0.0177,0.0178,0.0166,0.0166,0.0166,0,0,-0.0287,-0.0271,-0.0283,-0.0267,-0.0243,-0.0217,-0.0217,-0.0179,-0.0157,-0.0128,-0.0084,-0.0045,0.0008,0.0049,0.0076,0.0073,0.0117,0.0079,0.0056,0.0108,0.0109,0.0111,0.0149,0.0155,0.008,0.008,0.008,0,-0.0305,-0.0314,-0.0283,-0.0288,-0.028,-0.0233,-0.0241,-0.0211,-0.0164,-0.0145,-0.0129,-0.0043,-0.0001,0.0045,0.0043,0.0064,0.0096,0.0068,0.0103,0.0105,0.0108,0.0147,0.0154,0.0077,0.0077,0.0077,0.0078,0,-0.034,-0.0348,-0.0355,-0.0345,-0.0329,-0.033,-0.0287,-0.0267,-0.0235,-0.02,-0.0152,-0.0089,-0.0036,-0.0019,0.0012,0.005,0.0067,0.0088,0.0112,0.0105,0.0147,0.0156,0.0073,0.0074,0.0075,0.0075,0,0,-0.0385,-0.0382,-0.0387,-0.0395,-0.0361,-0.0356,-0.0335,-0.0301,-0.0286,-0.0232,-0.0203,-0.0136,-0.0097,-0.0064,-0.0016,0.0031,0.0074,0.0062,0.0066,0.0095,0.018,0.0211,0.0224,0.0101,0.0102,0.0104,0.0198,0,-0.0425,-0.0458,-0.0436,-0.046,-0.0471,-0.0422,-0.0404,-0.0363,-0.0318,-0.0277,-0.02,-0.0156,-0.0115,-0.009,-0.0036,0.005,0.0094,0.0046,0.0187,0.0191,0.0216,0.0234,0.02,0.0283,0.0206,0.0208,0.0209,0,-0.0469,-0.0485,-0.0519,-0.0519,-0.0518,-0.0518,-0.0482,-0.046,-0.0382,-0.0345,-0.028,-0.0215,-0.0134,-0.0102,0.0042,0.0008,0.0084,0.0151,0.0156,0.0213,0.0238,0.0281,0.0302,0.0223,0.0222,0.0221,0.022,0,-0.0522,-0.0544,-0.0576,-0.0577,-0.0562,-0.0562,-0.0547,-0.0483,-0.0465,-0.0386,-0.0358,-0.025,-0.0192,-0.008,0.006,0.0052,0.0219,0.0228,0.0327,0.0329,0.0343,0.0345,0.0324,0.0323,0.0323,0.0323,0.0323,0,-0.0574,-0.0602,-0.0607,-0.0626,-0.0657,-0.0618,-0.0624,-0.059,-0.0531,-0.0507,-0.0401,-0.035,-0.0182,-0.0063,0.0053,0.0222,0.0219,0.033,0.0363,0.0321,0.032,0.0302,0.0299,0.0326,0.0326,0.0325,0.0324,0,-0.0627,-0.063,-0.0671,-0.0679,-0.0686,-0.0705,-0.0694,-0.0689,-0.0624,-0.0587,-0.0565,-0.0416,-0.0251,-0.0081,0.0116,0.0217,0.0371,0.0427,0.0362,0.0386,0.0443,0.0435,0.0545,0.0547,0.0549,0.055,0.0551,0,-0.0657,-0.0682,-0.0724,-0.0753,-0.0762,-0.0782,-0.0791,-0.0745,-0.0732,-0.0624,-0.0608,-0.0441,-0.0308,-0.0004,0.0209,0.0429,0.0424,0.0514,0.0498,0.0449,0.0469,0.0458,0.0448,0.0487,0.0488,0.0489,0.0489,0,-0.071,-0.0723,-0.0758,-0.0823,-0.0854,-0.0884,-0.089,-0.0894,-0.0823,-0.0768,-0.0655,-0.0539,-0.0235,0.0024,0.0312,0.0426,0.0478,0.0532,0.0516,0.0435,0.0402,0.0419,0.041,0.0493,0.0493,0.0492,0.0492,0.0492,-0.0744,-0.0786,-0.0833,-0.0891,-0.0933,-0.0969,-0.0983,-0.096,-0.0928,-0.0822,-0.0702,-0.0503,-0.0242,0.0172,0.0379,0.0558,0.0551,0.0588,0.0584,0.0579,0.0554,0.0526,0.0635,0.0635,0.0636,0.0636,0.0636,0,-0.0786,-0.0832,-0.0895,-0.0962,-0.1015,-0.1019,-0.1034,-0.1012,-0.0963,-0.0837,-0.0695,-0.0412,-0.0109,0.015,0.0451,0.0634,0.0603,0.0646,0.0577,0.0572,0.0567,0.0539,0.0618,0.0618,0.0619,0.0619,0,0,-0.0809,-0.088,-0.0915,-0.1013,-0.1057,-0.1096,-0.1099,-0.1042,-0.0946,-0.0812,-0.066,-0.0436,-0.0107,0.0105,0.0337,0.0492,0.0475,0.049,0.0484,0.037,0.0364,0.0513,0.0462,0,0,0,0,0]}],[{"header":{"parameterUnit":"m.s-1","parameterCategory":2,"la1":30.2991,"la2":30.254,"lo1":-89.0895,"lo2":-89.0444,"dy":0.0017,"dx":0.0017,"nx":28,"ny":28,"refTime":"2024-08-29T21:00:00:Z","depth":"4","parameterNumber":2,"parameterNumberName":"U-component_of_CURRENTS"},"data":[0,0,0,0,0,0,0,0,0,0,0,0,0,0,0,0,0,0,0,0,0,0,0,0,0,0,0,0,0,0,0,0,0,0,0,0,0,0,0,0,0,0,0,0,0,0,0,0,0,0,0,0,0,0,0,0,0,0,-0.1443,-0.1444,0,-0.1501,-0.1501,-0.1502,-0.1527,-0.1527,-0.1527,-0.1527,-0.1559,-0.156,-0.1561,0,0,0,0,0,0,0,0,0,0,0,0,0,-0.136,-0.1361,-0.1443,-0.1444,-0.1445,-0.1501,-0.1501,-0.1502,-0.1527,-0.1527,-0.1527,-0.1527,-0.1559,-0.156,-0.1561,0,0,0,0,0,0,0,0,0,0,0,0,0,-0.1403,-0.1362,-0.1443,-0.1465,-0.1468,-0.15,-0.1501,-0.1502,-0.1527,-0.1527,-0.1527,-0.1527,-0.1558,-0.156,-0.1561,-0.1566,0,0,-0.1564,-0.1565,0,0,0,0,0,0,0,0,-0.1401,-0.1406,-0.1461,-0.1464,-0.1467,-0.1508,-0.1484,-0.1523,-0.1527,-0.1503,-0.1527,-0.1527,-0.1541,-0.1543,-0.1552,-0.1568,-0.1569,-0.1564,-0.1565,-0.1566,-0.1566,0,0,0,0,0,0,0,-0.1398,-0.1404,-0.1464,-0.1462,-0.1465,-0.1474,-0.148,-0.1491,-0.1519,-0.1505,-0.1507,-0.1516,-0.1542,-0.1551,-0.1553,-0.157,-0.1564,-0.1566,-0.1566,-0.1567,-0.1654,-0.1656,0,0,0,0,0,0,-0.1393,-0.1401,-0.1462,-0.1466,-0.1435,-0.1476,-0.1482,-0.1493,-0.1519,-0.1524,-0.1516,-0.1517,-0.1549,-0.1552,-0.1554,-0.1618,-0.1566,-0.1567,-0.1567,-0.1653,-0.1655,-0.1657,0,0,0,0,0,0,-0.1391,-0.1398,-0.146,-0.1436,-0.1444,-0.1477,-0.1489,-0.1495,-0.1526,-0.1528,-0.1532,-0.1545,-0.1549,-0.1552,-0.1589,-0.1617,-0.1567,-0.1568,-0.1651,-0.1653,-0.1656,-0.1709,0,0,0,0,0,0,-0.1389,-0.1397,-0.1416,-0.1436,-0.1446,-0.1495,-0.149,-0.1496,-0.1531,-0.1534,-0.1554,-0.1556,-0.1549,-0.1587,-0.159,-0.1618,-0.1569,-0.1649,-0.1652,-0.1655,-0.1705,-0.1713,-0.172,0,0,0,0,0,-0.1386,-0.1406,-0.1417,-0.1425,-0.1466,-0.1496,-0.1503,-0.1524,-0.1533,-0.1552,-0.157,-0.1557,-0.1608,-0.1589,-0.1592,-0.1621,-0.1647,-0.1651,-0.1655,-0.1702,-0.1712,-0.172,0,0,0,0,0,0,-0.138,-0.1411,-0.1423,-0.1453,-0.1481,-0.1501,-0.1526,-0.154,-0.157,-0.158,-0.1577,-0.1581,-0.1622,-0.1618,-0.1597,-0.1657,-0.1626,-0.163,-0.1661,-0.167,-0.1677,-0.1671,-0.157,0,0,0,0,0,-0.1388,-0.1413,-0.144,-0.1468,-0.1484,-0.151,-0.153,-0.1547,-0.1571,-0.1586,-0.1601,-0.1618,-0.1636,-0.1651,-0.1664,-0.1698,-0.168,-0.1719,-0.1726,-0.1732,-0.1731,-0.1733,-0.1739,-0.1669,-0.1669,-0.1668,0,0,-0.1394,-0.1415,-0.1431,-0.1469,-0.1493,-0.1525,-0.1523,-0.1562,-0.1594,-0.1583,-0.1636,-0.1646,-0.1652,-0.1689,-0.1707,-0.1691,-0.1745,-0.1737,-0.1742,-0.1737,-0.1737,-0.1744,-0.175,-0.1671,-0.1671,-0.167,0,0,-0.1412,-0.1439,-0.1465,-0.1492,-0.1534,-0.1552,-0.1569,-0.1606,-0.1631,-0.1678,-0.1679,-0.1706,-0.174,-0.1746,-0.1753,-0.1809,-0.1782,-0.1821,-0.1853,-0.1856,-0.1861,-0.1866,-0.1853,-0.1856,-0.1825,-0.1825,-0.1825,0,-0.1421,-0.1454,-0.1478,-0.1509,-0.1537,-0.1567,-0.1602,-0.1632,-0.1679,-0.17,-0.1704,-0.1757,-0.1764,-0.1799,-0.1821,-0.1824,-0.1817,-0.1818,-0.1864,-0.1868,-0.1871,-0.1857,-0.186,-0.1828,-0.1828,-0.1827,-0.1827,0,-0.1446,-0.1487,-0.1506,-0.1555,-0.1588,-0.1625,-0.1666,-0.1706,-0.1739,-0.1762,-0.1814,-0.1826,-0.1851,-0.1865,-0.1862,-0.1898,-0.1881,-0.187,-0.1837,-0.1881,-0.1864,-0.1866,-0.1832,-0.1831,-0.183,-0.183,0,0,-0.1429,-0.1509,-0.1518,-0.1551,-0.1617,-0.1643,-0.1704,-0.1756,-0.1791,-0.1838,-0.1876,-0.1916,-0.1919,-0.1927,-0.1929,-0.1937,-0.1959,-0.1922,-0.192,-0.19,-0.1958,-0.1836,-0.1825,-0.1958,-0.1959,-0.1959,-0.1935,0,-0.1444,-0.1506,-0.1545,-0.1612,-0.1647,-0.1698,-0.1748,-0.1801,-0.1843,-0.1887,-0.191,-0.1945,-0.1944,-0.1958,-0.197,-0.1962,-0.1966,-0.1966,-0.1925,-0.1923,-0.1802,-0.1824,-0.1962,-0.1936,-0.1936,-0.1936,-0.1936,0,-0.1449,-0.1492,-0.1558,-0.1641,-0.1661,-0.1708,-0.1785,-0.1831,-0.1895,-0.1927,-0.1965,-0.1981,-0.201,-0.1997,-0.2005,-0.2007,-0.1988,-0.1977,-0.1975,-0.184,-0.1803,-0.1883,-0.1939,-0.1938,-0.1938,-0.1938,-0.1938,0,-0.1408,-0.1499,-0.1552,-0.1581,-0.1677,-0.1721,-0.1771,-0.1844,-0.188,-0.1947,-0.1975,-0.2012,-0.2028,-0.2024,-0.2007,-0.2011,-0.1997,-0.1993,-0.1864,-0.1855,-0.1949,-0.1944,-0.1989,-0.1989,-0.1989,-0.1989,-0.1989,0,-0.1391,-0.1437,-0.1543,-0.1569,-0.163,-0.1705,-0.1768,-0.1821,-0.1892,-0.1919,-0.1986,-0.1999,-0.2038,-0.2035,-0.2014,-0.1933,-0.2,-0.1863,-0.1839,-0.1973,-0.1971,-0.1949,-0.1945,-0.1988,-0.1988,-0.1989,-0.1989,0,-0.133,-0.1405,-0.1469,-0.1578,-0.1613,-0.1653,-0.1755,-0.1787,-0.1872,-0.1907,-0.1928,-0.1995,-0.1984,-0.1998,-0.1983,-0.1922,-0.187,-0.1825,-0.196,-0.1945,-0.1727,-0.1726,-0.1675,-0.1671,-0.1667,-0.1664,-0.1661,0,-0.1301,-0.133,-0.1451,-0.1483,-0.1536,-0.161,-0.165,-0.1756,-0.1781,-0.1879,-0.1873,-0.1912,-0.1935,-0.1811,-0.1846,-0.1788,-0.1769,-0.1734,-0.1737,-0.1712,-0.1695,-0.17,-0.1704,-0.1655,-0.1654,-0.1653,-0.1652,0,-0.1232,-0.1289,-0.1335,-0.1403,-0.146,-0.1511,-0.1576,-0.1588,-0.169,-0.1788,-0.1764,-0.1753,-0.1738,-0.1718,-0.1684,-0.1647,-0.1754,-0.1693,-0.1701,-0.1704,-0.1687,-0.1674,-0.1683,-0.1639,-0.1641,-0.1642,-0.1643,0,-0.1173,-0.1188,-0.1255,-0.1298,-0.1365,-0.1381,-0.1439,-0.1463,-0.1506,-0.1619,-0.1602,-0.1646,-0.1711,-0.1642,-0.161,-0.1564,-0.1544,-0.1496,-0.1514,-0.1529,-0.1492,-0.145,-0.13,0,0,0,0,0,-0.1107,-0.1107,-0.114,-0.1184,-0.1244,-0.1278,-0.1369,-0.1429,-0.1535,-0.1472,-0.1533,-0.1509,-0.1472,-0.15,-0.1418,-0.1545,-0.1551,-0.1445,-0.1507,-0.1564,-0.158,-0.155,0,0,0,0,0,0,-0.1062,-0.1092,-0.1099,-0.1071,-0.1074,-0.1124,-0.1175,-0.1252,-0.123,-0.1342,-0.1326,-0.1409,-0.1391,-0.148,-0.138,-0.1387,-0.1394,-0.1481,-0.1477,-0.1556,-0.157,-0.1582,-0.1557,0,0,0,0,0]},{"header":{"parameterUnit":"m.s-1","parameterCategory":2,"la1":30.2991,"la2":30.254,"lo1":-89.0895,"lo2":-89.0444,"dy":0.0017,"dx":0.0017,"nx":28,"ny":28,"refTime":"2024-08-29T21:00:00:Z","depth":"4","parameterNumber":3,"parameterNumberName":"V-component_of_CURRENTS"},"data":[0,0,0,0,0,0,0,0,0,0,0,0,0,0,0,0,0,0,0,0,0,0,0,0,0,0,0,0,0,0,0,0,0,0,0,0,0,0,0,0,0,0,0,0,0,0,0,0,0,0,0,0,0,0,0,0,0,0,-0.0122,-0.0122,0,-0.0073,-0.0073,-0.0072,-0.0036,-0.0036,-0.0035,-0.0035,0.0052,0.0054,0.0056,0,0,0,0,0,0,0,0,0,0,0,0,0,-0.015,-0.015,-0.0122,-0.0122,-0.0121,-0.0073,-0.0072,-0.0072,-0.0036,-0.0036,-0.0035,-0.0035,0.0051,0.0054,0.0057,0,0,0,0,0,0,0,0,0,0,0,0,0,-0.0122,-0.0149,-0.0122,-0.0098,-0.0096,-0.0073,-0.0072,-0.0071,-0.0036,-0.0036,-0.0035,-0.0035,0.0051,0.0054,0.0057,0.0071,0,0,0.0067,0.0068,0,0,0,0,0,0,0,0,-0.0124,-0.0121,-0.0102,-0.01,-0.0097,-0.0061,-0.005,-0.0022,-0.0036,-0.0057,-0.0035,-0.0035,0.0017,0.0023,0.0033,0.0075,0.0079,0.0067,0.0069,0.007,0.0071,0,0,0,0,0,0,0,-0.0126,-0.0122,-0.0102,-0.0102,-0.0099,-0.0078,-0.0074,-0.0045,-0.0021,-0.0055,-0.0053,-0.005,0.0019,0.0029,0.0035,0.008,0.0067,0.007,0.0072,0.0073,0.0148,0.0148,0,0,0,0,0,0,-0.0136,-0.0125,-0.0103,-0.01,-0.0111,-0.0078,-0.0074,-0.0072,-0.0022,-0.0015,-0.005,-0.0048,0.0024,0.0031,0.0038,0.0061,0.007,0.0073,0.0075,0.0148,0.0148,0.0148,0,0,0,0,0,0,-0.0137,-0.0135,-0.0105,-0.0112,-0.0107,-0.0079,-0.0077,-0.0071,-0.0061,-0.0018,-0.001,-0.0046,0.0024,0.0034,0.0066,0.0065,0.0075,0.0078,0.0148,0.0148,0.0148,0.0105,0,0,0,0,0,0,-0.0138,-0.0136,-0.014,-0.0113,-0.0107,-0.0097,-0.0077,-0.0071,-0.006,-0.0058,-0.0012,-0.0004,0.0025,0.0061,0.007,0.0069,0.008,0.0148,0.0148,0.0148,0.0106,0.0104,0.0101,0,0,0,0,0,-0.0139,-0.0148,-0.0141,-0.0138,-0.0114,-0.0097,-0.0092,-0.007,-0.0061,-0.0059,-0.0025,-0.0005,0.0068,0.0064,0.0074,0.0074,0.0148,0.0148,0.0148,0.0107,0.0104,0.0101,0,0,0,0,0,0,-0.0162,-0.0145,-0.0136,-0.0139,-0.0122,-0.0091,-0.0091,-0.0074,-0.0047,-0.0044,-0.0002,0.0009,0.0036,0.0062,0.0056,0.0096,0.011,0.0112,0.0076,0.0073,0.0071,0.006,0.0083,0,0,0,0,0,-0.017,-0.0173,-0.015,-0.0153,-0.0147,-0.012,-0.0111,-0.0096,-0.0068,-0.0056,-0.0024,0.0011,0.0044,0.0063,0.0093,0.0117,0.0143,0.0123,0.012,0.0118,0.0116,0.016,0.0161,0.0148,0.0148,0.0148,0,0,-0.0181,-0.0172,-0.0174,-0.0158,-0.0144,-0.0139,-0.0114,-0.0105,-0.0097,-0.005,-0.003,0.0003,0.0047,0.0073,0.0088,0.0096,0.0134,0.0118,0.0116,0.0115,0.016,0.0161,0.0162,0.0148,0.0148,0.0148,0,0,-0.0204,-0.0196,-0.0205,-0.0193,-0.0177,-0.0158,-0.0158,-0.013,-0.0114,-0.009,-0.0055,-0.0021,0.0024,0.0059,0.0082,0.0085,0.0117,0.0091,0.0073,0.0115,0.0117,0.0118,0.0145,0.0149,0.0092,0.0092,0.0092,0,-0.0219,-0.0227,-0.0205,-0.0208,-0.0204,-0.017,-0.0176,-0.0153,-0.0117,-0.0103,-0.009,-0.0018,0.0019,0.0059,0.006,0.0079,0.0102,0.008,0.0112,0.0114,0.0116,0.0143,0.0148,0.009,0.009,0.009,0.009,0,-0.0243,-0.0252,-0.0257,-0.025,-0.0239,-0.0241,-0.0209,-0.0194,-0.0172,-0.0144,-0.0104,-0.005,-0.0008,0.001,0.0038,0.0071,0.0081,0.01,0.0117,0.0115,0.0143,0.015,0.0087,0.0088,0.0088,0.0089,0,0,-0.0275,-0.0276,-0.028,-0.0289,-0.0264,-0.0262,-0.0245,-0.0222,-0.0213,-0.0167,-0.0149,-0.0085,-0.0056,-0.0027,0.0014,0.0055,0.0091,0.008,0.0083,0.0101,0.0173,0.0163,0.0169,0.0115,0.0116,0.0117,0.0183,0,-0.0305,-0.0331,-0.0317,-0.0338,-0.0348,-0.0314,-0.0301,-0.0271,-0.0238,-0.0209,-0.0143,-0.011,-0.0069,-0.005,-0.0002,0.007,0.0107,0.007,0.0177,0.018,0.0168,0.0176,0.012,0.0188,0.0189,0.019,0.0191,0,-0.0335,-0.035,-0.038,-0.0388,-0.0388,-0.0392,-0.0373,-0.0357,-0.0299,-0.0271,-0.0219,-0.0167,-0.0098,-0.0067,0.0055,0.0029,0.0092,0.0149,0.0153,0.0163,0.0182,0.0194,0.0203,0.0202,0.0201,0.02,0.02,0,-0.0373,-0.0396,-0.0426,-0.0428,-0.0424,-0.0431,-0.0425,-0.038,-0.037,-0.0312,-0.0295,-0.0203,-0.0158,-0.0061,0.0058,0.0056,0.0189,0.0203,0.0253,0.0253,0.0261,0.0259,0.0282,0.0282,0.0282,0.0282,0.0282,0,-0.0407,-0.0435,-0.0453,-0.047,-0.0506,-0.0479,-0.0497,-0.0474,-0.0435,-0.0421,-0.0336,-0.0299,-0.0153,-0.0057,0.0045,0.0168,0.0182,0.025,0.0273,0.024,0.0235,0.0265,0.0262,0.0284,0.0284,0.0283,0.0283,0,-0.044,-0.0451,-0.0493,-0.0513,-0.0527,-0.0551,-0.0561,-0.0563,-0.0519,-0.0498,-0.0482,-0.0366,-0.0236,-0.0093,0.0073,0.0147,0.0268,0.0306,0.0251,0.0269,0.0304,0.0298,0.0363,0.0364,0.0364,0.0364,0.0364,0,-0.0457,-0.0481,-0.0537,-0.057,-0.0587,-0.0619,-0.0636,-0.0612,-0.0607,-0.0534,-0.0523,-0.0399,-0.0307,-0.008,0.0066,0.0257,0.0284,0.0334,0.0328,0.0298,0.0314,0.0308,0.0302,0.0364,0.0365,0.0365,0.0365,0,-0.0488,-0.0512,-0.0547,-0.062,-0.0662,-0.0699,-0.072,-0.0722,-0.0675,-0.0645,-0.0542,-0.0412,-0.0265,-0.0082,0.0067,0.0203,0.0296,0.0337,0.0338,0.0332,0.0301,0.0314,0.0308,0.0365,0.0365,0.0365,0.0365,0,-0.051,-0.0548,-0.0601,-0.066,-0.072,-0.0755,-0.0762,-0.0738,-0.0721,-0.0629,-0.0597,-0.0422,-0.0316,-0.011,0.0028,0.0162,0.0192,0.0225,0.0232,0.0233,0.0177,0.0117,0.0145,0,0,0,0,0,-0.0527,-0.0571,-0.0634,-0.0699,-0.0758,-0.0788,-0.0805,-0.0793,-0.0751,-0.0685,-0.0635,-0.049,-0.0262,-0.0159,-0.0026,0.0017,0.02,0.0174,0.0237,0.037,0.0369,0.0325,0,0,0,0,0,0,-0.0539,-0.0603,-0.0636,-0.0715,-0.0763,-0.082,-0.083,-0.0801,-0.075,-0.0688,-0.0562,-0.0478,-0.0255,-0.0339,-0.003,0.0011,0.0065,0.0287,0.029,0.037,0.0369,0.0369,0.0323,0,0,0,0,0]}]]